Flag for China Weather past 2 weeks in Chongqing, Chongqing Municipality, China

Now
43 °F

Scattered clouds.


Feels Like: 41 °F
Forecast: 40 / 52 °F
Wind: 3 mph from East

Location: Chongqing Airport

Current Time: Jan 31, 2015 at 1:00:32 PM

Latest Report: Jan 31, 2015 at 12:00 PM


Visibility: N/A

Pressure: 30.42 "Hg

Humidity: 61%

Dew point: 30 °F

Location of ChongqingLocation

Historic Weather in Chongqing — Graph

°F

Chongqing temperature yesterday

Maximum temperature yesterday: 43 °F (at 6:00 PM)
Minimum temperature yesterday: 39 °F (at 12:00 AM)
Average temperature yesterday: 40 °F

Past Weeks' High & Low Weather Summary

 TemperatureHumidityPressure
High64 °F (Jan 22, 3:00 PM)94% (Jan 27, 7:00 AM)30.48 "Hg (Jan 27, 7:00 AM)
Low39 °F (Jan 29, 7:00 AM)37% (Jan 22, 3:00 PM)29.74 "Hg (Jan 23, 6:00 PM)
Average50 °F76%30.15 "Hg
* Reported Jan 16 11:00 AM — Jan 31 11:00 AM, Chongqing, Weather by CustomWeather, © 2014

Note: Actual official high and low records may vary slightly from our data, if they occured in-between our weather recording intervals... More about our weather records

Advertising

Chongqing weather history for previous 24 hours

 ConditionsComfort  
Time TempWeatherWind HumidityBarometerVisibility
11:00 AM
Jan 31
41 °FScattered clouds.3 mph61%30.45 "HgN/A
10:00 AM41 °FScattered clouds.3 mph66%30.42 "HgN/A
9:00 AM41 °FScattered clouds.3 mph70%30.42 "HgN/A
8:00 AM39 °FScattered clouds.3 mph70%30.42 "HgN/A
7:00 AM39 °FPassing clouds.3 mph70%30.39 "HgN/A
6:00 AM39 °FPassing clouds.3 mph70%30.36 "HgN/A
5:00 AM39 °FPassing clouds.3 mph70%30.36 "HgN/A
4:00 AM39 °FMostly cloudy.1 mph75%30.36 "HgN/A
3:00 AM39 °FMostly cloudy.No wind75%30.36 "HgN/A
2:00 AM39 °FMostly cloudy.1 mph75%30.36 "HgN/A
1:00 AM39 °FOvercast.3 mph75%30.36 "HgN/A
12:00 AM39 °FClear.6 mph75%30.36 "Hg10 mi
11:00 PM
Jan 30
41 °FPassing clouds.3 mph66%30.36 "HgN/A
10:00 PM41 °FMostly cloudy.3 mph66%30.36 "HgN/A
9:00 PM41 °FMostly cloudy.6 mph70%30.33 "HgN/A
8:00 PM41 °FMostly cloudy.6 mph76%30.33 "HgN/A
7:00 PM41 °FMostly cloudy.6 mph81%30.30 "HgN/A
6:00 PM43 °FMore clouds than sun.6 mph81%30.27 "HgN/A
5:00 PM41 °FMore clouds than sun.6 mph87%30.24 "HgN/A
4:00 PM41 °FMore clouds than sun.6 mph87%30.24 "HgN/A
3:00 PM41 °FMore clouds than sun.1 mph87%30.24 "HgN/A
2:00 PM41 °FLight rain. More clouds than sun.1 mph93%30.27 "HgN/A
1:00 PM41 °FLight rain. Fog.3 mph93%30.30 "Hg2 mi
Weather by CustomWeather, © 2014

See weather overviewHow to use our weather pages